Flag for South Africa Weather past 2 weeks in Port Elizabeth, South Africa

Now
68 °F

Partly sunny.


Feels Like: 68 °F
Forecast: 65 / 69 °F
Wind: 10 mph from Southwest

Location: Port Elizabeth Airport

Current Time: Dec 26, 2014 at 12:53:48 PM

Latest Report: Dec 26, 2014 at 12:00 PM


Visibility: N/A

Pressure: 30.01 "Hg

Humidity: 69%

Dew point: 57 °F

Location of Port ElizabethLocation

Historic Weather in Port Elizabeth — Graph

°F

Port Elizabeth temperature yesterday

Maximum temperature yesterday: 79 °F (at 1:00 PM)
Minimum temperature yesterday: 59 °F (at 3:00 AM)
Average temperature yesterday: 70 °F

Past Weeks' High & Low Weather Summary

 TemperatureHumidityPressure
High79 °F (Dec 17, 2:00 PM)94% (Dec 14, 4:01 AM)30.15 "Hg (Dec 14, 4:01 AM)
Low54 °F (Dec 14, 4:01 AM)45% (Dec 17, 2:00 PM)29.71 "Hg (Dec 25, 3:00 PM)
Average68 °F72%29.96 "Hg
* Reported Dec 11 11:00 AM — Dec 26 11:00 AM, Port Elizabeth, Weather by CustomWeather, © 2014

Note: Actual official high and low records may vary slightly from our data, if they occured in-between our weather recording intervals... More about our weather records

Advertising

Port Elizabeth weather history for previous 24 hours

 ConditionsComfort  
Time TempWeatherWind HumidityBarometerVisibility
11:00 AM
Dec 26
66 °FLight rain. Partly sunny.13 mph73%30.01 "HgN/A
10:00 AM68 °FPartly sunny.13 mph69%29.98 "HgN/A
9:00 AM68 °FPassing clouds.18 mph64%29.98 "HgN/A
8:00 AM66 °FSunny.18 mph68%29.98 "Hg10 mi
7:00 AM66 °FPassing clouds.13 mph68%29.95 "HgN/A
6:00 AM64 °FSunny.20 mph73%29.92 "Hg10 mi
5:00 AM64 °FSunny.18 mph73%29.92 "Hg10 mi
4:00 AM64 °FClear.14 mph73%29.92 "Hg10 mi
3:00 AM64 °FClear.16 mph73%29.92 "Hg10 mi
2:00 AM66 °FClear.20 mph68%29.92 "Hg10 mi
1:00 AM64 °FClear.22 mph73%29.92 "Hg10 mi
12:00 AM66 °FPassing clouds.18 mph73%29.92 "HgN/A
11:00 PM
Dec 25
68 °FPassing clouds.22 mph69%29.89 "HgN/A
10:00 PM68 °FPassing clouds.18 mph69%29.89 "HgN/A
9:00 PM68 °FPassing clouds.21 mph73%29.86 "HgN/A
8:00 PM70 °FPassing clouds.28 mph73%29.80 "HgN/A
7:00 PM70 °FPassing clouds.25 mph78%29.74 "HgN/A
6:00 PM72 °FPassing clouds.30 mph73%29.71 "HgN/A
5:00 PM75 °FSunny.35 mph61%29.71 "Hg10 mi
4:00 PM75 °FSunny.30 mph57%29.71 "Hg10 mi
3:00 PM77 °FSunny.29 mph54%29.71 "Hg10 mi
2:00 PM77 °FSunny.33 mph51%29.74 "Hg10 mi
1:00 PM79 °FPassing clouds.26 mph54%29.74 "HgN/A
12:00 PM77 °FPassing clouds.29 mph57%29.77 "HgN/A
Weather by CustomWeather, © 2014

See weather overviewHow to use our weather pages